CYBGCYBQ

Guest
Details From CYBG - BAGOTVILLE
To CYBQ - Tadoule Lake
Flight Number -
Tags decoded
Created
Modified
Stats Distance 1,295 nm / 2,398 km
Max Altitude 0 ft / 0 m
Waypoints 5
Social Downloads 0
Likes 0
Share VATSIM

Download

Looking for another format? Having issues loading an existing format? Contact us
Advertisement - Login to hide

Notes

Requested: CYBG VBS V386 KAROT V386 BV CYBQ Unmatched points: V386 V386

Route

CYBG VBS KAROT BV CYBQ

ID Type Via Altitude Latitude Longitude Leg Dist Tot Dist Heading (true) Name
O CYBG APT - 0 ft / 0 m 48.33118˚ -70.99417˚ - 0 nm - BAGOTVILLE
VBS VOR - 0 ft / 0 m 48.01722˚ -71.26667˚ 21 nm 21 nm 210° / 210° SAGUENAY VOR-DME
KAROT FIX - 0 ft / 0 m 47.11142˚ -71.27892˚ 54 nm 76 nm 181° / 181° -
BV NDB - 0 ft / 0 m 46.87114˚ -71.28142˚ 14 nm 90 nm 180° / 180° CHAMPLAIN NDB
O CYBQ APT - 0 ft / 0 m 58.70627˚ -98.51285˚ 1204 nm 1294 nm 316° / 294° Tadoule Lake

Altitude Profile

Advertisement - Login to hide

Weather


0- 5 10 15 20 25 30 35+ Temperature / ° C

Clouds and Precipitation
Forecast for 2017-12-15 12:00 UTC. Updated 2 hours ago

Ground ~20,000 ft ~40,000 ft Winds

CYBG

Details ICAO CYBG (YBG)
Name BAGOTVILLE
Region Canada
Timezone America/Montreal (UTC-5.0)
Stats Elevation 522 ft / 159 m (AMSL)
Location 48.331181° -70.994165°
Runways 2
Magnetic Variation 16.557° W

METAR

CYBG 151000Z 27011KT 25SM FEW120 SCT200 M18/M22 A2974 RMK AC2CI2 SLP085

Decode

TAF

TAF TAF CYBG 150530Z 1506/1606 27015G25KT P6SM SCT040 BKN120 TEMPO 1506/1512 3SM -SN BLSN BKN040 OVC120 FM151300 27015G25KT P6SM SCT040 BECMG 1518/1520 27010KT BECMG 1600/1602 VRB03KT RMK NXT FCST BY 151200Z

Decode

Departure Runways

ID Width Length Bearing (true) Bearing (mag) Surface Threshold Offset Overrun Length
11 150 ft / 46 m 9,907 ft / 3,020 m 90.57° 107.13° Concrete 0 ft / 0 m 0 ft / 0 m
18 150 ft / 46 m 5,923 ft / 1,805 m 163.46° 180.02° Asphalt 0 ft / 0 m 0 ft / 0 m
29 150 ft / 46 m 9,907 ft / 3,020 m 270.60° 287.16° Concrete 0 ft / 0 m 0 ft / 0 m
36 150 ft / 46 m 5,923 ft / 1,805 m 343.46° 0.02° Asphalt 0 ft / 0 m 0 ft / 0 m

CYBQ

Details ICAO CYBQ (XTL)
Name Tadoule Lake
Region Canada
Timezone America/Winnipeg (UTC-6.0)
Stats Elevation 902 ft / 275 m (AMSL)
Location 58.706269° -98.512850°
Runways 1
Magnetic Variation 2.989° E

METAR

CYBQ 151000Z AUTO 31006KT 9SM CLR M31/M34 A2993 RMK SLP178

Decode

TAF

Not found

Destination Runways

ID Width Length Bearing (true) Bearing (mag) Surface Threshold Offset Overrun Length
07 164 ft / 50 m 3,971 ft / 1,210 m 72.58° 69.59° Dirt 0 ft / 0 m 0 ft / 0 m
25 164 ft / 50 m 3,971 ft / 1,210 m 252.60° 249.61° Dirt 0 ft / 0 m 0 ft / 0 m

Popular Alternatives